This is the latest recevied weather packets stored in our database for station/object YO2LDK-13. If no packets are shown the sender has not sent any weather packets the latest 10 day(s).
| Time | Temp. | Humidity | Pressure | Rain* | Wind** | Luminosity | Snow |
|---|---|---|---|---|---|---|---|
| 1777710019 | 17.78° C | 40% | 1013.2 hPa | 0 mm | - | 83 W/m² | - |
| 1777709719 | 17.78° C | 40% | 1013.2 hPa | 0 mm | - | 82 W/m² | - |
| 1777709419 | 16.67° C | 41% | 1013.2 hPa | 0 mm | - | 81 W/m² | - |
| 1777709120 | 16.11° C | 42% | 1012.9 hPa | 0 mm | - | 83 W/m² | - |
| 1777708820 | 16.67° C | 41% | 1013.2 hPa | 0 mm | - | 71 W/m² | - |
| 1777708519 | 16.67° C | 41% | 1013.2 hPa | 0 mm | - | 83 W/m² | - |
| 1777708219 | 16.11° C | 42% | 1013.2 hPa | 0 mm | - | 76 W/m² | - |
| 1777707919 | 16.11° C | 41% | 1013.2 hPa | 0 mm | - | 86 W/m² | - |
| 1777707619 | 15.56° C | 42% | 1013.2 hPa | 0 mm | - | 84 W/m² | - |
| 1777707319 | 15.56° C | 42% | 1013.5 hPa | 0 mm | - | 68 W/m² | - |
| 1777707019 | 16.11° C | 41% | 1013.5 hPa | 0 mm | - | 47 W/m² | - |
| 1777706719 | 16.67° C | 40% | 1013.2 hPa | 0 mm | - | 61 W/m² | - |
| 1777706419 | 16.11° C | 40% | 1013.2 hPa | 0 mm | - | 74 W/m² | - |
| 1777706120 | 15.56° C | 42% | 1013.5 hPa | 0 mm | - | 101 W/m² | - |
| 1777705819 | 15.56° C | 43% | 1013.5 hPa | 0 mm | - | 101 W/m² | - |
| 1777705519 | 15° C | 45% | 1013.2 hPa | 0 mm | - | 99 W/m² | - |
| 1777705220 | 14.44° C | 45% | 1013.5 hPa | 0 mm | - | 110 W/m² | - |
| 1777704919 | 13.89° C | 47% | 1013.5 hPa | 0 mm | - | 194 W/m² | - |
| 1777704619 | 13.89° C | 47% | 1013.5 hPa | 0 mm | - | 392 W/m² | - |
| 1777704319 | 13.33° C | 47% | 1013.5 hPa | 0 mm | - | 290 W/m² | - |
| 1777704020 | 12.78° C | 51% | 1013.5 hPa | 0 mm | - | 199 W/m² | - |
| 1777703719 | 13.33° C | 50% | 1013.5 hPa | 0 mm | - | 322 W/m² | - |
| 1777703419 | 13.33° C | 52% | 1013.5 hPa | 0 mm | - | 378 W/m² | - |
| 1777703119 | 12.78° C | 52% | 1013.5 hPa | 0 mm | - | 236 W/m² | - |
| 1777702819 | 11.67° C | 51% | 1013.5 hPa | 0 mm | - | 74 W/m² | - |
* Rain latest hour (hover to see other rain measurements)
** Current wind speed in m/s (hover to see current wind gust speed)